{"data":{"norad_id":68361,"intl_designator":"2026-061B","name":"RASSVET-3 2","alt_names":[],"object_type":"PAYLOAD","status":"ACTIVE","operator":null,"country":"CIS","launch_date":"2026-03-23","launch_site_code":"PLMSC","launch_vehicle":null,"mission":null,"orbit_class":"UNKNOWN","rcs_meters":null,"size_class":null,"mass_kg":null,"dimensions":null,"purposes":[],"wikipedia_slug":null,"has_3d_model":false,"image_url":null,"decayed_at":null,"tle_current":{"epoch":"2026-09-18T01:59:38.162976Z","epoch_age_seconds":281089,"freshness":"STALE","line1":"1 68361U 26061B   26261.08308059  .00001651  00000+0  77795-4 0  9990","line2":"2 68361  82.2886 275.9707 0004515 132.9949 227.1664 15.18840694 27754","mean_motion":15.18840694,"eccentricity":0.0004515,"inclination_deg":82.2886,"raan_deg":275.9707,"arg_perigee_deg":132.9949,"mean_anomaly_deg":227.1664,"bstar":7.7795e-5,"rev_number":2775,"period_min":94.809153171136,"perigee_km":506.23342188972,"apogee_km":512.45281643733,"semimajor_km":6887.4801191635,"source":"CELESTRAK","updated_at":"2026-09-20T09:00:24.161764Z"}}}